OK1VCF-8 Weather Reports


time (UTC)temp
F
wind
direction
speed
knots
gust
knots
rain 1hr
in
rain 24hr
in
rain mn
in
humidity
%
barometer
mb
20260506121306 74 0 0.0 0.0 0.00 0.00 0.00 48 1007.3
20260506120450 74 0 0.0 0.0 0.00 0.00 0.00 50 1007.3
20260506115637 73 0 0.0 0.0 0.00 0.00 0.00 50 1007.2
20260506114822 72 0 0.0 0.0 0.00 0.00 0.00 52 1007.3
20260506114024 72 0 0.0 0.0 0.00 0.00 0.00 50 1007.3
20260506113242 73 0 0.0 0.0 0.00 0.00 0.00 50 1007.4
20260506112501 74 0 0.0 0.0 0.00 0.00 0.00 48 1007.6
20260506111738 73 0 0.0 0.0 0.00 0.00 0.00 48 1007.6
20260506111018 72 0 0.0 0.0 0.00 0.00 0.00 50 1007.6
20260506110300 72 0 0.0 0.0 0.00 0.00 0.00 51 1007.6
20260506105538 71 0 0.0 0.0 0.00 0.00 0.00 50 1007.8
20260506104819 70 0 0.0 0.0 0.00 0.00 0.00 54 1007.8
20260506104101 70 0 0.0 0.0 0.00 0.00 0.00 53 1007.8
20260506103341 70 0 0.0 0.0 0.00 0.00 0.00 54 1008.0
20260506102337 70 0 0.0 0.0 0.00 0.00 0.00 52 1007.8
20260506101617 71 0 0.0 0.0 0.00 0.00 0.00 50 1008.0
20260506100857 72 0 0.0 0.0 0.00 0.00 0.00 55 1008.0
20260506100138 72 0 0.0 0.0 0.00 0.00 0.00 50 1008.0
20260506095415 72 0 0.0 0.0 0.00 0.00 0.00 54 1008.0
20260506094655 71 0 0.0 0.0 0.00 0.00 0.00 57 1008.0
20260506093935 69 0 0.0 0.0 0.00 0.00 0.00 58 1007.9
20260506093216 68 0 0.0 0.0 0.00 0.00 0.00 59 1008.0
20260506092457 66 0 0.0 0.0 0.00 0.00 0.00 60 1008.0
20260506091736 66 0 0.0 0.0 0.00 0.00 0.00 60 1008.1
20260506091016 68 0 0.0 0.0 0.00 0.00 0.00 56 1008.0
20260506084835 66 0 0.0 0.0 0.00 0.00 0.00 62 1008.0
20260506084117 67 0 0.0 0.0 0.00 0.00 0.00 60 1007.8
20260506083112 68 0 0.0 0.0 0.00 0.00 0.00 60 1008.0
20260506082351 68 0 0.0 0.0 0.00 0.00 0.00 64 1008.0
20260506081630 66 0 0.0 0.0 0.00 0.00 0.00 65 1007.9
20260506080911 66 0 0.0 0.0 0.00 0.00 0.00 66 1008.0
20260506080152 66 0 0.0 0.0 0.00 0.00 0.00 69 1008.0
20260506073229 64 0 0.0 0.0 0.00 0.00 0.00 72 1007.9
20260506072508 64 0 0.0 0.0 0.00 0.00 0.00 72 1008.0
20260506071747 65 0 0.0 0.0 0.00 0.00 0.00 70 1008.0
20260506071017 64 0 0.0 0.0 0.00 0.00 0.00 72 1008.0
20260506070241 64 0 0.0 0.0 0.00 0.00 0.00 71 1007.8
20260506062140 61 0 0.0 0.0 0.00 0.00 0.00 78 1007.8
20260506061403 60 0 0.0 0.0 0.00 0.00 0.00 79 1007.8
20260506060626 60 0 0.0 0.0 0.00 0.00 0.00 82 1007.7
20260506050716 56 0 0.0 0.0 0.00 0.00 0.00 92 1008.0
20260506044237 56 0 0.0 0.0 0.00 0.00 0.00 88 1007.7
20260506043514 58 0 0.0 0.0 0.00 0.00 0.00 90 1007.6
20260506042757 54 0 0.0 0.0 0.00 0.00 0.00 92 1007.6
20260506042038 55 0 0.0 0.0 0.00 0.00 0.00 90 1007.5
20260506035858 55 0 0.0 0.0 0.00 0.00 0.00 96 1007.4
20260506035142 54 0 0.0 0.0 0.00 0.00 0.00 96 1007.0
20260506034415 52 0 0.0 0.0 0.00 0.00 0.00 96 1007.1
20260506033642 52 0 0.0 0.0 0.00 0.00 0.00 96 1007.2
20260506031441 52 0 0.0 0.0 0.00 0.00 0.00 96 1007.0
20260506030724 52 0 0.0 0.0 0.00 0.00 0.00 96 1007.2
20260506030005 52 0 0.0 0.0 0.00 0.00 0.00 96 1007.2
20260506025004 52 0 0.0 0.0 0.00 0.00 0.00 96 1007.2
20260506024245 52 0 0.0 0.0 0.00 0.00 0.00 96 1007.1
20260506023526 52 0 0.0 0.0 0.00 0.00 0.00 96 1007.2
20260506022809 52 0 0.0 0.0 0.00 0.00 0.00 96 1007.2
20260506022051 52 0 0.0 0.0 0.00 0.00 0.00 96 1007.4
20260506021332 53 0 0.0 0.0 0.00 0.00 0.00 96 1007.4
20260506020615 53 0 0.0 0.0 0.00 0.00 0.00 96 1007.3
20260506015857 54 0 0.0 0.0 0.00 0.00 0.00 96 1007.2
20260506015140 54 0 0.0 0.0 0.00 0.00 0.00 96 1007.2
20260506014423 54 0 0.0 0.0 0.00 0.00 0.00 96 1007.1
20260506013704 54 0 0.0 0.0 0.00 0.00 0.00 96 1007.0
20260506011506 54 0 0.0 0.0 0.00 0.00 0.00 95 1006.8
20260506010730 54 0 0.0 0.0 0.00 0.00 0.00 95 1006.8
20260506005631 54 0 0.0 0.0 0.00 0.00 0.00 95 1007.0
20260506004813 54 0 0.0 0.0 0.00 0.00 0.00 95 1006.9
20260506003945 54 0 0.0 0.0 0.00 0.00 0.00 95 1007.0
20260506003121 55 0 0.0 0.0 0.00 0.00 0.00 95 1007.0